KNUCKSAN

Guest
Details From KNUC - San Clemente Island Nalf
To KSAN - San Diego Intl
Flight Number -
Tags generated
Created
Modified
Stats Distance 73 nm / 135 km
Max Altitude 2,200 ft / 671 m
Waypoints 3
Social Downloads 3
Likes 0
Share VATSIM

Download

Looking for another format? Having issues loading an existing format? Contact us
Advertisement - Login to hide

Notes

Basic altitude profile: - Ascent Rate: 2500ft/min - Ascent Speed: 250kts - Cruise Altitude: 35000ft - Cruise Speed: 420kts - Descent Rate: 1500ft/min - Descent Speed: 250kts Options: - Use NATs: yes - Use PACOTS: yes - Use low airways: yes - Use high airways: yes

Route

KNUC SARGS KSAN

ID Type Via Altitude Latitude Longitude Leg Dist Tot Dist Heading (true) Name
O KNUC APT - 0 ft / 0 m 33.02274˚ -118.58849˚ - 0 nm - San Clemente Island Nalf
SARGS FIX - 2,200 ft / 671 m 32.78172˚ -117.38953˚ 62 nm 62 nm 103° / 104° -
O KSAN APT - 0 ft / 0 m 32.73356˚ -117.18966˚ 10 nm 72 nm 106° / 106° San Diego Intl

Altitude Profile

Advertisement - Login to hide

KNUC

Details ICAO KNUC
Name San Clemente Island Nalf
Region United States
Timezone America/Los_Angeles (UTC-8.0)
Stats Elevation 182 ft / 55 m (AMSL)
Location 33.022745° -118.588487°
Runways 1
Magnetic Variation 11.859° E

METAR

KNUC 181756Z 12012KT 10SM SCT250 18/07 A3019 RMK SLP221 T01830072 10183 20122 51018

Decode

TAF

TAF KNUC 1815/1915 VRB06KT 9999 FEW250 QNH3004INS T19/1822Z T14/1913Z FS30108

Decode

Departure Runways

ID Width Length Bearing (true) Bearing (mag) Surface Threshold Offset Overrun Length
05 200 ft / 61 m 9,290 ft / 2,832 m 67.19° 55.33° Concrete 0 ft / 0 m 0 ft / 0 m
23 200 ft / 61 m 9,290 ft / 2,832 m 247.20° 235.34° Concrete 0 ft / 0 m 0 ft / 0 m

KSAN

Details ICAO KSAN (SAN)
Name San Diego Intl
Region United States
Timezone America/Los_Angeles (UTC-8.0)
Stats Elevation 17 ft / 5 m (AMSL)
Location 32.733556° -117.189658°
Runways 1
Magnetic Variation 11.524° E

METAR

KSAN 181751Z 00000KT 10SM CLR 17/M02 A3019 RMK AO2 SLP223 T01721017 10178 20094 51016

Decode

TAF

TAF KSAN 181720Z 1818/1924 28007KT P6SM SKC FM190100 VRB04KT P6SM FEW003 FEW200 FM192000 29007KT P6SM SCT200

Decode

Destination Runways

ID Width Length Bearing (true) Bearing (mag) Surface Threshold Offset Overrun Length
09 200 ft / 61 m 9,387 ft / 2,861 m 106.07° 94.55° Asphalt 699 ft / 213 m 269 ft / 82 m
27 200 ft / 61 m 9,387 ft / 2,861 m 286.08° 274.56° Asphalt 1,811 ft / 552 m 0 ft / 0 m

Approach Navaids

Runway Type Ident Frequency Range Bearing (true) Bearing (mag) Slope Elevation
09 Localiser ISAN 111.55 MHz 18 nm / 33 km 106.08° 94.55° - 17 ft / 5 m (AMSL)
09 Glidescope ISAN 111.55 MHz 10 nm / 19 km 106.08° 94.55° 3.22° 13 ft / 4 m (AMSL)
09 DME ISAN 111.55 MHz 18 nm / 33 km - - - 29 ft / 9 m (AMSL)
27 Localiser IUBR 110.90 MHz 18 nm / 33 km 286.07° 274.54° - 13 ft / 4 m (AMSL)
27 DME IUBR 110.90 MHz 18 nm / 33 km - - - 26 ft / 8 m (AMSL)

Popular Alternatives